TimeAST,TemperatureF,Dew PointF,Humidity,Sea Level PressureIn,VisibilityMPH,Wind Direction,Wind SpeedMPH,Gust SpeedMPH,PrecipitationIn,Events,Conditions,WindDirDegrees,DateUTC
12:00 AM,75.2,71.6,89,30.01,6.2,Variable,2.3,-,N/A,,Partly Cloudy,0,2013-03-28 04:00:00
1:00 AM,75.2,71.6,89,29.98,6.2,Calm,Calm,-,N/A,,Partly Cloudy,0,2013-03-28 05:00:00
2:00 AM,75,72,87,29.97,17,,1.2,,,,Haze,,2013-03-28 06:00:00
2:00 AM,75.2,71.6,89,29.95,6.2,Variable,1.2,-,N/A,,Scattered Clouds,0,2013-03-28 06:00:00
3:00 AM,75.2,71.6,89,29.95,6.2,Variable,1.2,-,N/A,,Partly Cloudy,0,2013-03-28 07:00:00
4:00 AM,75.2,71.6,89,29.95,6.2,Calm,Calm,-,N/A,,Partly Cloudy,0,2013-03-28 08:00:00
5:00 AM,74,71,88,29.96,17,,1.2,,,,Haze,,2013-03-28 09:00:00
5:00 AM,73.4,71.6,94,29.95,6.2,Variable,1.2,-,N/A,,Scattered Clouds,0,2013-03-28 09:00:00
6:00 AM,73.4,71.6,94,29.98,6.2,Calm,Calm,-,N/A,,Scattered Clouds,0,2013-03-28 10:00:00
7:00 AM,75.2,73.4,94,29.98,6.2,Calm,Calm,-,N/A,,Mostly Cloudy,0,2013-03-28 11:00:00
8:00 AM,80,73,73,30.02,17,East,4.6,,,,Haze,100,2013-03-28 12:00:00
8:00 AM,80.6,73.4,79,30.01,6.2,East,4.6,-,N/A,,Scattered Clouds,100,2013-03-28 12:00:00
9:00 AM,82.4,73.4,74,30.04,6.2,East,8.1,-,N/A,,Scattered Clouds,80,2013-03-28 13:00:00
10:00 AM,82.4,71.6,70,30.04,6.2,East,10.4,-,N/A,,Scattered Clouds,90,2013-03-28 14:00:00
11:00 AM,84.2,73.4,70,30.01,6.2,East,11.5,-,N/A,,Scattered Clouds,80,2013-03-28 15:00:00
12:00 PM,84.2,73.4,70,30.01,6.2,East,11.5,-,N/A,,Scattered Clouds,90,2013-03-28 16:00:00
1:00 PM,80.6,73.4,79,30.01,6.2,ENE,12.7,-,N/A,,Scattered Clouds,70,2013-03-28 17:00:00
2:00 PM,83,72,62,29.97,17,East,11.5,,,,Haze,90,2013-03-28 18:00:00
2:00 PM,84.2,71.6,66,29.95,6.2,East,11.5,-,N/A,,Partly Cloudy,90,2013-03-28 18:00:00
3:00 PM,82.4,71.6,70,29.95,6.2,East,10.4,-,N/A,,Scattered Clouds,80,2013-03-28 19:00:00
4:00 PM,80.6,73.4,79,29.95,6.2,ENE,10.4,-,N/A,,Scattered Clouds,70,2013-03-28 20:00:00
5:00 PM,80,72,70,29.96,17,East,6.9,,,,Haze,100,2013-03-28 21:00:00
5:00 PM,80.6,71.6,74,29.95,6.2,East,6.9,-,N/A,,Partly Cloudy,100,2013-03-28 21:00:00
6:00 PM,78.8,73.4,83,29.98,6.2,East,4.6,-,N/A,,Partly Cloudy,80,2013-03-28 22:00:00
7:00 PM,78.8,71.6,78,29.98,6.2,East,3.5,-,N/A,,Mostly Cloudy,80,2013-03-28 23:00:00
8:00 PM,78,72,78,30.01,16,East,5.8,,,,Haze,80,2013-03-29 00:00:00
8:00 PM,78.8,71.6,78,30.01,6.2,East,5.8,-,N/A,,Mostly Cloudy,80,2013-03-29 00:00:00
9:00 PM,78.8,73.4,83,30.01,6.2,East,3.5,-,N/A,,Mostly Cloudy,90,2013-03-29 01:00:00
10:00 PM,78.8,71.6,78,30.01,6.2,ENE,6.9,-,N/A,,Mostly Cloudy,60,2013-03-29 02:00:00
11:00 PM,78,73,80,30.02,15,ENE,6.9,,,,Mostly Cloudy,60,2013-03-29 03:00:00
11:00 PM,78.8,73.4,83,30.01,6.2,ENE,6.9,-,N/A,,Mostly Cloudy,60,2013-03-29 03:00:00